Location: Bannatyne
(13.0833°N, 59.5333°W)
Time: 09:55:44
(UTC+00:00)

Vanguard 2 Rocket - Pass Details

Date: 26 January 2020
Orbit: 554 x 3326 km, 32.9° (Epoch: 28 March)

Event Time Altitude Azimuth Distance (km) Brightness Sun altitude
Rises 10:48:07 0° 320° (NW) 3,149 9.1 4.4°
Reaches altitude 10° 10:51:39 10° 349° (NNW) 2,563 8.9 5.3°
Maximum altitude 10:54:37 14° 18° (NNE) 2,626 9.3 5.9°
Drops below altitude 10° 10:58:16 10° 46° (NE) 3,302 10.2 6.8°
Sets 11:04:14 0° 69° (ENE) 4,975 11.5 8.1°
